Regional Weather Roundup
Issued by NWS

Home | Current Version | Previous Version | Graphics & Text | Print | Product List | Glossary On
Versions: 1 2 3 4 5 6 7 8 9 10 11 12 13 14 15 16 17 18 19 20 21 22 23 24 25 26 27 28 29 30 31 32 33 34 35 36 37 38 39 40 41 42 43 44 45 46 47 48 49 50
000
ASUS43 KDMX 280907
RWRIA

WEATHER ROUNDUP FOR IOWA
NATIONAL WEATHER SERVICE DES MOINES IA
400 AM CDT THU AUG 28 2014

NOTE: "FAIR" INDICATES FEW OR NO CLOUDS BELOW 12,000 FEET WITH NO
SIGNIFICANT WEATHER AND/OR OBSTRUCTIONS TO VISIBILITY.

* - THESE STATIONS ARE NOT NWS STATIONS...THUS NOT UNDER NWS
QUALITY CONTROL.  THEY ALSO DO NOT REPORT WEATHER SUCH
AS PRECIPITATION OR FOG.

IAZ001>003-012>014-020>022-031>034-043>046-281000-
   NORTHWEST IOWA

CITY           SKY/WX    TMP DP  RH WIND       PRES   REMARKS
CARROLL *      CLOUDY    68  68 100 SE6       30.03F FOG
DENISON *      LGT RAIN  68  68 100 E7        30.00F
LE MARS *      LGT RAIN  68  68 100 SE7       30.01F
ORANGE CITY *  CLOUDY    70  66  88 SE6       30.02F
SHELDON *      CLOUDY    66  64  94 E8        30.02F
SIOUX CITY     LGT RAIN  69  68  96 SE8       29.99F
SPENCER        CLOUDY    66  63  90 E7        30.05F
STORM LAKE *   LGT RAIN  66  66 100 SE7       30.04F
$$

IAZ055>058-069>071-079>083-090>094-281000-
   SOUTHWEST IOWA

CITY           SKY/WX    TMP DP  RH WIND       PRES   REMARKS
ATLANTIC *     CLOUDY    70  68  94 VRB5      30.02R
AUDUBON *      MOCLDY    70  68  94 E3        30.03F
CLARINDA *     HVY RAIN  72  72 100 E8G14     30.02F
COUNCIL BLFS * LGT RAIN  70  70 100 E8        29.99F
CRESTON *      CLOUDY    70  70 100 CALM      30.06R FOG
HARLAN  *      LGT RAIN  70  70 100 SE5       30.05F
LAMONI         CLOUDY    71  69  93 E5        30.02F
RED OAK *      CLOUDY    72  70  94 E9G17     30.01F FOG
SHENANDOAH *   CLOUDY    72  70  94 E10       29.98F
$$

IAZ047>049-059>061-072>074-084-281000-
   CENTRAL IOWA

CITY           SKY/WX    TMP DP  RH WIND       PRES   REMARKS
AMES           MOCLDY    67  64  90 E5        30.04F
ANKENY *       CLOUDY    68  64  88 E7        30.03F
CHARITON *     CLOUDY    70  68  94 E8        30.04S
DES MOINES     CLOUDY    70  65  84 E5        30.03S
GRINNELL*      PTCLDY    64  63  94 E5        30.07S
KNOXVILLE *    CLOUDY    68  64  88 E6        30.03F
MARSHALLTOWN   CLOUDY    65  62  90 E7        30.06F
PELLA *        MOCLDY    68  63  83 E6        30.05F
PERRY *        RAIN      68  66  94 SE5       30.04S
$$

IAZ004>006-015-016-023>025-035-036-281000-
   NORTH CENTRAL IOWA

CITY           SKY/WX    TMP DP  RH WIND       PRES   REMARKS
ALGONA *       CLOUDY    66  63  88 SE8       30.07F
CLARION *        N/A     64  63  94 E8        30.06F
ESTHERVILLE    CLOUDY    63  61  93 SE7       30.05F
FORT DODGE *   MOCLDY    66  63  88 E9        30.05F
MASON CITY     PTCLDY    62  60  93 E6        30.10F
FOREST CITY *  CLOUDY    63  61  94 E5        30.08F
IOWA FALLS *   CLOUDY    64  63  94 CALM      30.08F
$$

IAZ007>011-017>019-026>030-037>042-050>054-066-281000-
   NORTHEAST IOWA

CITY           SKY/WX    TMP DP  RH WIND       PRES   REMARKS
CEDAR RAPIDS   CLOUDY    66  63  90 E7        30.07S
CHARLES CITY * PTCLDY    61  59  94 E7        30.10S
CLINTON *      MOCLDY    64  61  88 E7        30.12S
DECORAH *        N/A     59  59 100 E5        30.10F
DUBUQUE        MOCLDY    63  62  97 E7        30.11F
MONTICELLO *   CLEAR     64  63  94 E6        30.09S
OELWEIN *      CLOUDY    63  61  94 E6        30.10S
WATERLOO       MOCLDY    63  61  93 E6        30.06F
$$

IAZ064-065-067-068-078-281000-
   EAST CENTRAL IOWA

CITY           SKY/WX    TMP DP  RH WIND       PRES   REMARKS
DAVENPORT      MOCLDY    66  63  90 E8        30.10R
IOWA CITY      CLOUDY    69  62  78 E7        30.08S
MT. PLEASANT * MOCLDY    68  64  88 NE5       30.05F
MUSCATINE *    CLOUDY    70  63  78 E7        30.07S
QUAD CITIES    CLOUDY    66  63  90 E6        30.08S
$$

IAZ062-063-075>077-085>089-095>099-281000-
   SOUTHEAST IOWA

CITY           SKY/WX    TMP DP  RH WIND       PRES   REMARKS
BURLINGTON     MOCLDY    69  66  90 E6        30.05F
FAIRFIELD *    CLOUDY    66  64  94 E6        30.05F
FORT MADISON * CLEAR     70  68  94 CALM      30.05F
KEOKUK *       PTCLDY    72  68  88 E9        30.03F
OSKALOOSA *    CLOUDY    68  64  88 E7        30.05F
CENTERVILLE *  PTCLDY    68  68 100 E6        30.05S
OTTUMWA        MOCLDY    68  65  90 E7        30.05S
WASHINGTON *   PTCLDY    66  64  94 NE5       30.06F
$$

ABBREVIATIONS USED IN REMARKS
   TC - TEMPERATURES IN CELSIUS
  WCI - WIND CHILL INDEX
   HX - HEAT INDEX
  VSB - VISIBILITY
$$



USA.gov is the U.S. government's official web portal to all federal, state and local government web resources and services.